Voltar ao catálogo

STARLINK-4486

AtivoComunicaçõesVLEO
NORAD 53540·PAYLOAD·🇺🇸 United States

Lançado Aug 19, 2022 de Cape Canaveral Space Force Station

Loading…

Próximas Passagens (próximas 24 horas)

TLE

AtualizadoSource: CelesTrak SupGP

Época: Sep 14, 2026, 22:19 UTC

1 53540C 22101P   26257.93034722  .00034935  00000+0  21913-2 0  2573
2 53540  53.1593 294.3135 0001159  87.7555 334.3015 15.08808803    16

Acompanhe STARLINK-4486 em tempo real com AllMySat

Download on the App Store